Tracking 30106 objects as of 23-Jan-2025
HD Live streaming from Space Station
objects crossing your sky now

ATLAS 5 CENTAUR DEB

Track ATLAS 5 CENTAUR DEB now!


NORAD ID: 44039
Int'l Code: 2014-055BZ
Perigee: 7,563.7 km
Apogee: 34,877.0 km
Inclination: 19.8 °
Period: 760.2 minutes
Semi major axis: 27591 km
RCS: Unknown
Launch date: September 17, 2014
Source: United States (US)
Launch site: ()

Note: This is SATELLITE DEBRIS
Your satellite tracking list
Your tracking list is empty




NASA's NSSDC Master Catalog

Two Line Element Set (TLE):
1 44039U 14055BZ  25022.04106690 -.00000030  00000-0  00000-0 0  9996
2 44039  19.8073 179.2454 4949607 104.5705 313.4172  1.89427811 42797
Source of the keplerian elements: AFSPC